View from above orbital plane
|
View from above satellite
|
Ground track
|
The orbit data is extracted from the following two-line orbital elements,
1 23404U 94077A 21057.93247425 -.00000341 00000-0 -15536-3 0 9994
2 23404 71.0165 345.3400 0018415 259.2179 100.6870 14.13537799354900
Epoch (UTC): | 26 February 2021 22:22:45 |
Eccentricity: | 0.0018415 |
inclination: | 71.0165° |
perigee height: | 834 km |
apogee height: | 860 km |
right ascension of ascending node: | 345.3400° |
argument of perigee: | 259.2179° |
revolutions per day: | 14.13537799 |
mean anomaly at epoch: | 100.6870° |
orbit number at epoch: | 35490 |
The dashed part of the orbit path shows where the satellite is in the earth's shadow,
|
|